This is the latest recevied weather packets stored in our database for station/object W1SCW. If no packets are shown the sender has not sent any weather packets the latest 10 day(s).
| Time | Temp. | Humidity | Pressure | Rain* | Wind** | Luminosity | Snow |
|---|---|---|---|---|---|---|---|
| 1777639926 | 17.22° C | 99% | 1010.5 hPa | 1.27 mm | - | 4 W/m² | - |
| 1777639623 | 17.22° C | 99% | 1011 hPa | 0.51 mm | - | 3 W/m² | - |
| 1777639320 | 17.22° C | 99% | 1011.2 hPa | 0.51 mm | - | 2 W/m² | - |
| 1777639016 | 17.22° C | 99% | 1010.9 hPa | 4.83 mm | - | 3 W/m² | - |
| 1777638712 | 17.22° C | 99% | 1010.4 hPa | 8.89 mm | - | 4 W/m² | - |
| 1777638408 | 17.22° C | 99% | 1009.9 hPa | 6.1 mm | - | 4 W/m² | - |
| 1777638105 | 17.22° C | 99% | 1009.7 hPa | 1.27 mm | - | 5 W/m² | - |
| 1777637801 | 17.22° C | 99% | 1010.5 hPa | 0.51 mm | - | 2 W/m² | - |
| 1777637497 | 17.22° C | 99% | 1010.2 hPa | 0.51 mm | - | 1 W/m² | - |
| 1777637195 | 17.22° C | 99% | 1009.7 hPa | 0.51 mm | - | 2 W/m² | - |
| 1777636892 | 17.22° C | 99% | 1009.9 hPa | 2.29 mm | - | 2 W/m² | - |
| 1777636588 | 17.22° C | 99% | 1009.7 hPa | 6.6 mm | - | 1 W/m² | - |
| 1777636284 | 17.22° C | 99% | 1009.6 hPa | 13.21 mm | - | 0 W/m² | - |
| 1777635984 | 17.22° C | 99% | 1009.1 hPa | 10.67 mm | - | 0 W/m² | - |
| 1777635680 | 17.22° C | 99% | 1009.4 hPa | 1.78 mm | - | 0 W/m² | - |
| 1777635377 | 17.22° C | 99% | 1009.6 hPa | 1.27 mm | - | 0 W/m² | - |
| 1777635074 | 17.22° C | 99% | 1009.4 hPa | 0.51 mm | - | 0 W/m² | - |
| 1777634770 | 17.22° C | 99% | 1008.8 hPa | 1.27 mm | - | 0 W/m² | - |
| 1777634467 | 17.22° C | 99% | 1008.7 hPa | 3.56 mm | - | 0 W/m² | - |
| 1777634164 | 17.22° C | 99% | 1008.9 hPa | 3.56 mm | - | 0 W/m² | - |
| 1777633860 | 17.22° C | 99% | 1008.9 hPa | 1.78 mm | - | 0 W/m² | - |
| 1777633558 | 17.22° C | 99% | 1008.6 hPa | 1.78 mm | - | 0 W/m² | - |
| 1777633256 | 17.22° C | 99% | 1009.1 hPa | 5.33 mm | - | 0 W/m² | - |
| 1777632953 | 17.78° C | 99% | 1008.9 hPa | 5.33 mm | - | 0 W/m² | - |
| 1777632649 | 17.78° C | 99% | 1009.4 hPa | 3.56 mm | - | 0 W/m² | - |
* Rain latest hour (hover to see other rain measurements)
** Current wind speed in m/s (hover to see current wind gust speed)